N5MDT Weather Reports


time (UTC)temp
C
wind
direction
speed
KPH
gust
KPH
rain 1hr
cm
rain 24hr
cm
rain mn
cm
humidity
%
barometer
mb
20260510151840 25 80 0.0 11.3 0.00 0.00 0.00 84 1015.8
20260510150840 25 132 1.6 11.3 0.00 0.00 0.00 85 1015.7
20260510145840 24 90 3.2 9.7 0.00 0.00 0.00 86 1015.8
20260510144840 24 194 1.6 9.7 0.00 0.00 0.00 87 1015.7
20260510143840 24 162 3.2 6.4 0.00 0.00 0.00 87 1015.6
20260510142845 24 79 0.0 1.6 0.00 0.00 0.00 87 1016.0
20260510141840 24 96 0.0 9.7 0.00 0.00 0.00 88 1016.2
20260510140840 23 43 0.0 4.8 0.00 0.00 0.00 88 1016.3
20260510135840 23 80 0.0 4.8 0.00 0.00 0.00 89 1016.2
20260510134839 23 54 0.0 1.6 0.00 0.00 0.00 89 1016.3
20260510133840 23 54 0.0 3.2 0.00 0.00 0.00 89 1016.3
20260510132839 23 62 0.0 1.6 0.00 0.00 0.00 89 1016.3
20260510131839 23 62 0.0 3.2 0.00 0.00 0.00 89 1015.9
20260510130839 23 67 0.0 0.0 0.00 0.00 0.00 89 1016.1
20260510125839 23 96 0.0 0.0 0.00 0.00 0.00 89 1015.6
20260510124839 23 96 0.0 0.0 0.00 0.00 0.00 89 1015.4
20260510123839 23 96 0.0 0.0 0.00 0.00 0.00 89 1015.1
20260510122839 23 96 0.0 0.0 0.00 0.00 0.00 89 1014.8
20260510121838 22 96 0.0 0.0 0.00 0.00 0.00 88 1014.6
20260510120838 22 96 0.0 3.2 0.00 0.00 0.00 88 1014.3
20260510115839 22 96 0.0 1.6 0.00 0.00 0.00 88 1014.0
20260510114838 22 96 0.0 3.2 0.00 0.00 0.00 88 1013.9
20260510113838 22 96 0.0 0.0 0.00 0.00 0.00 88 1013.8
20260510112838 22 96 0.0 0.0 0.00 0.00 0.00 88 1013.6
20260510111838 22 96 0.0 0.0 0.00 0.00 0.00 88 1013.5
20260510110853 22 96 0.0 0.0 0.00 0.00 0.00 88 1013.5
20260510105838 22 96 0.0 1.6 0.00 0.00 0.00 88 1013.2
20260510104838 22 96 0.0 6.4 0.00 0.00 0.00 88 1013.0
20260510103838 22 94 4.8 4.8 0.00 0.00 0.00 88 1012.8
20260510102838 22 105 0.0 0.0 0.00 0.00 0.00 87 1012.6
20260510101837 22 91 0.0 0.0 0.00 0.00 0.00 87 1012.3
20260510100853 22 103 0.0 0.0 0.00 0.00 0.00 87 1012.2
20260510095837 22 103 0.0 1.6 0.00 0.00 0.00 86 1012.1
20260510094838 22 103 0.0 3.2 0.00 0.00 0.00 86 1011.9
20260510093837 22 109 3.2 4.8 0.00 0.00 0.00 86 1011.9
20260510092837 22 119 0.0 0.0 0.00 0.00 0.00 86 1011.9
20260510091837 22 119 0.0 0.0 0.00 0.00 0.00 86 1011.8
20260510090852 22 119 0.0 3.2 0.00 0.00 0.00 86 1011.8
20260510085837 22 90 0.0 6.4 0.00 0.00 0.00 86 1011.7
20260510084837 22 101 3.2 3.2 0.00 0.00 0.00 86 1011.6
20260510083837 22 127 0.0 3.2 0.00 0.00 0.00 85 1011.5
20260510082837 22 172 1.6 6.4 0.00 0.00 0.00 85 1011.6
20260510081837 22 124 1.6 6.4 0.00 0.00 0.00 85 1011.9
20260510080836 22 146 0.0 0.0 0.00 0.00 0.00 85 1011.9
20260510075837 22 146 0.0 0.0 0.00 0.00 0.00 84 1011.9
20260510074837 22 146 0.0 6.4 0.00 0.00 0.00 85 1012.0
20260510073836 22 103 0.0 0.0 0.00 0.00 0.00 84 1011.9
20260510072836 22 103 0.0 3.2 0.00 0.00 0.00 84 1011.9
20260510071836 22 125 0.0 4.8 0.00 0.00 0.00 84 1011.9
20260510070836 23 134 1.6 6.4 0.00 0.00 0.00 83 1011.9
20260510065836 23 157 0.0 3.2 0.00 0.00 0.00 83 1012.1
20260510064836 23 94 1.6 4.8 0.00 0.00 0.00 83 1012.1
20260510063836 23 115 0.0 8.0 0.00 0.00 0.00 83 1012.1
20260510062835 23 159 0.0 8.0 0.00 0.00 0.00 83 1012.3
20260510061836 23 199 3.2 8.0 0.00 0.00 0.00 82 1012.4
20260510060835 23 132 3.2 11.3 0.00 0.00 0.00 82 1012.4
20260510055836 23 163 1.6 11.3 0.00 0.00 0.00 81 1012.4
20260510054835 23 69 3.2 6.4 0.00 0.00 0.00 81 1012.5
20260510053835 23 104 0.0 1.6 0.00 0.00 0.00 81 1012.7
20260510052835 23 104 0.0 11.3 0.00 0.00 0.00 80 1012.6
20260510051835 23 92 3.2 11.3 0.00 0.00 0.00 80 1012.7
20260510050835 23 75 1.6 17.7 0.00 0.00 0.00 79 1012.5
20260510045835 23 87 3.2 11.3 0.00 0.00 0.00 79 1012.6
20260510044835 23 90 3.2 16.1 0.00 0.00 0.00 78 1012.6
20260510043835 23 130 4.8 6.4 0.00 0.00 0.00 77 1012.8
20260510042824 23 93 12.9 12.9 0.00 0.00 0.00 77 1012.7
20260510041824 23 178 6.4 14.5 0.00 0.00 0.00 77 1012.5
20260510040824 24 186 6.4 12.9 0.00 0.00 0.00 76 1012.5
20260510035824 24 92 1.6 14.5 0.00 0.00 0.00 76 1012.4
20260510034823 24 102 6.4 19.3 0.00 0.00 0.00 76 1012.6
20260510033853 24 152 6.4 12.9 0.00 0.00 0.00 76 1012.5
20260510032823 25 69 8.0 17.7 0.00 0.00 0.00 75 1012.6
20260510031823 25 178 4.8 19.3 0.00 0.00 0.00 75 1012.8
20260510030823 25 84 4.8 19.3 0.00 0.00 0.00 73 1012.4
20260510025823 26 105 14.5 29.0 0.00 0.00 0.00 72 1012.4
20260510024838 27 74 22.5 29.0 0.00 0.00 0.00 72 1012.3
20260510023853 28 97 4.8 4.8 0.00 0.00 0.00 74 1011.8
20260510022823 28 89 0.0 4.8 0.00 0.00 0.00 73 1011.0
20260510021823 28 136 1.6 11.3 0.00 0.00 0.00 73 1010.8
20260510020823 28 106 0.0 6.4 0.00 0.00 0.00 74 1010.8
20260510015823 28 152 0.0 0.0 0.00 0.00 0.00 74 1010.6
20260510014823 28 152 0.0 0.0 0.00 0.00 0.00 74 1010.4
20260510013822 28 152 0.0 0.0 0.00 0.00 0.00 73 1010.3
20260510012822 29 152 0.0 0.0 0.00 0.00 0.00 72 1010.2
20260510011822 30 152 0.0 0.0 0.00 0.00 0.00 72 1009.9
20260510010908 30 152 0.0 0.0 0.00 0.00 0.00 70 1009.8
20260510005822 31 152 0.0 0.0 0.00 0.00 0.00 70 1009.6
20260510004822 31 152 0.0 0.0 0.00 0.00 0.00 69 1009.4
20260510003852 31 152 0.0 0.0 0.00 0.00 0.00 67 1009.3
20260510002907 31 152 0.0 0.0 0.00 0.00 0.00 68 1009.3
20260510001852 32 152 0.0 0.0 0.00 0.00 0.00 67 1009.2
20260510000822 32 152 0.0 4.8 0.00 0.00 0.00 66 1009.0
20260509235821 32 107 1.6 3.2 0.00 0.00 0.00 64 1008.8
20260509234851 32 107 0.0 3.2 0.00 0.00 0.00 65 1008.8
20260509233852 33 107 0.0 1.6 0.00 0.00 0.00 64 1009.0
20260509232821 33 107 1.6 3.2 0.00 0.00 0.00 62 1009.1
20260509231821 34 117 0.0 4.8 0.00 0.00 0.00 62 1009.1
20260509230821 34 174 0.0 3.2 0.00 0.00 0.00 62 1009.0
20260509225821 34 113 0.0 0.0 0.00 0.00 0.00 63 1009.0
20260509224821 33 61 0.0 0.0 0.00 0.00 0.00 63 1009.0
20260509223821 34 61 0.0 1.6 0.00 0.00 0.00 62 1009.0
20260509222821 34 61 0.0 1.6 0.00 0.00 0.00 63 1008.8
20260509221821 33 61 0.0 0.0 0.00 0.00 0.00 64 1008.9
20260509220850 33 61 0.0 0.0 0.00 0.00 0.00 64 1008.9
20260509215850 33 61 0.0 0.0 0.00 0.00 0.00 66 1009.1
20260509214850 33 51 0.0 0.0 0.00 0.00 0.00 66 1009.0
20260509213906 33 60 0.0 1.6 0.00 0.00 0.00 66 1008.9
20260509212820 33 113 1.6 1.6 0.00 0.00 0.00 66 1009.0
20260509211850 33 113 0.0 1.6 0.00 0.00 0.00 64 1009.0
20260509210820 33 113 0.0 1.6 0.00 0.00 0.00 62 1009.0
20260509205820 33 113 1.6 6.4 0.00 0.00 0.00 61 1009.2
20260509204820 33 288 0.0 3.2 0.00 0.00 0.00 62 1009.4
20260509203819 33 167 0.0 6.4 0.00 0.00 0.00 70 1009.6
20260509202820 32 193 0.0 4.8 0.00 0.00 0.00 72 1009.7
20260509201850 31 5 0.0 0.0 0.00 0.00 0.00 74 1009.7
20260509200819 31 50 0.0 0.0 0.00 0.00 0.00 75 1009.7
20260509195819 30 64 0.0 0.0 0.00 0.00 0.00 77 1009.8
20260509194819 30 64 0.0 0.0 0.00 0.00 0.00 78 1010.0
20260509193849 30 67 0.0 0.0 0.00 0.00 0.00 79 1010.2
20260509192849 30 147 0.0 0.0 0.00 0.00 0.00 75 1010.2
20260509191819 30 147 0.0 4.8 0.00 0.00 0.00 72 1010.2
20260509190819 30 138 0.0 0.0 0.00 0.00 0.00 75 1010.3
20260509185849 30 167 0.0 6.4 0.00 0.00 0.00 76 1010.6
20260509184819 29 164 0.0 6.4 0.00 0.00 0.00 76 1010.7
20260509183849 29 279 0.0 0.0 0.00 0.00 0.00 76 1010.9
20260509182819 29 169 0.0 0.0 0.00 0.00 0.00 78 1011.0
20260509181818 28 169 0.0 0.0 0.00 0.00 0.00 78 1011.0
20260509180818 28 197 0.0 0.0 0.00 0.00 0.00 80 1011.2
20260509175818 28 117 0.0 0.0 0.00 0.00 0.00 79 1011.3
20260509174848 28 311 0.0 0.0 0.00 0.00 0.00 80 1011.4
20260509173848 28 121 0.0 0.0 0.00 0.00 0.00 81 1011.3
20260509172818 27 121 0.0 6.4 0.00 0.00 0.00 81 1011.3
20260509171848 27 157 4.8 11.3 0.00 0.00 0.00 83 1011.2
20260509170818 27 156 0.0 0.0 0.00 0.00 0.00 82 1011.3
20260509165818 27 313 0.0 0.0 0.00 0.00 0.00 83 1011.4
20260509164818 27 312 0.0 0.0 0.00 0.00 0.00 83 1011.6
20260509163847 27 293 0.0 0.0 0.00 0.00 0.00 84 1011.5
20260509162817 26 278 0.0 0.0 0.00 0.00 0.00 85 1011.6
20260509161817 26 168 0.0 0.0 0.00 0.00 0.00 86 1011.7
20260509160817 26 118 0.0 0.0 0.00 0.00 0.00 86 1011.9
20260509155817 26 118 0.0 0.0 0.00 0.00 0.00 88 1011.7
20260509154817 25 102 0.0 0.0 0.00 0.00 0.00 87 1011.8
20260509153847 25 244 0.0 6.4 0.00 0.00 0.00 87 1011.7
20260509152847 25 142 0.0 8.0 0.00 0.00 0.00 89 1011.5